Regional Weather Roundup
Issued by NWS

Home | Current Version | Previous Version | Text Only | Print | Product List | Glossary Off
Versions: 1 2 3 4 5 6 7 8 9 10 11 12 13 14 15 16 17 18 19 20 21 22 23 24 25 26 27 28 29 30 31 32 33 34 35 36 37 38 39 40 41 42 43 44 45 46 47 48 49 50

000
ASUS43 KDMX 041506
RWRIA

WEATHER ROUNDUP FOR IOWA
NATIONAL WEATHER SERVICE DES MOINES IA
900 AM CST SUN DEC 04 2016

NOTE: "FAIR" INDICATES FEW OR NO CLOUDS BELOW 12,000 FEET WITH NO
SIGNIFICANT WEATHER AND/OR OBSTRUCTIONS TO VISIBILITY.

* - THESE STATIONS ARE NOT NWS STATIONS...THUS NOT UNDER NWS
QUALITY CONTROL.  THEY ALSO DO NOT REPORT WEATHER SUCH
AS PRECIPITATION OR FOG.

IAZ001>003-012>014-020>022-031>034-043>046-041600-
   NORTHWEST IOWA

CITY           SKY/WX    TMP DP  RH WIND       PRES   REMARKS
CARROLL *      CLOUDY    34  34 100 SW10      29.95S WCI  26
CHEROKEE *     CLOUDY    33  33 100 SW9       29.92S FOG     WCI  26
DENISON *      CLOUDY    34  32  93 SW7       29.93S WCI  28
LE MARS *      MOSUNNY   32  32 100 S8        29.93S FOG     WCI  25
ORANGE CITY *  CLOUDY    32  32 100 SW10      29.90S FOG     WCI  24
SHELDON *      CLOUDY    34  34 100 SW12G17   29.88F WCI  25
SIOUX CITY     SUNNY     33  31  92 S5        29.94S WCI  29
SPENCER        CLOUDY    33  31  92 SW12G20   29.91S WCI  24
STORM LAKE *   CLOUDY    32  30  93 W12       29.91F WCI  23
$$

IAZ055>058-069>071-079>083-090>094-041600-
   SOUTHWEST IOWA

CITY           SKY/WX    TMP DP  RH WIND       PRES   REMARKS
ATLANTIC *     CLOUDY    34  34 100 W9        29.98R FOG     WCI  26
AUDUBON *      CLOUDY    34  30  86 SW8       29.97R FOG     WCI  27
CLARINDA *       N/A     36  36 100 VRB7      30.01S WCI  30
COUNCIL BLFS * CLOUDY    34  32  93 W7        29.98S WCI  28
CRESTON *      CLOUDY    32  32 100 SW7       29.98S FOG     WCI  26
HARLAN  *      CLOUDY    34  34 100 W8        30.00S WCI  27
LAMONI         LGT SNOW  33  32  96 S6        29.98S VSB 1   WCI  28
RED OAK *      CLOUDY    34  34 100 W8        30.00R FOG     WCI  27
SHENANDOAH *   CLOUDY    34  34 100 W9G16     30.02R WCI  26
$$

IAZ047>049-059>061-072>074-084-041600-
   CENTRAL IOWA

CITY           SKY/WX    TMP DP  RH WIND       PRES   REMARKS
AMES           CLOUDY    33  33 100 S12       29.96S WCI  24
ANKENY *       CLOUDY    34  34 100 S7        29.98F FOG     WCI  28
BOONE *        CLOUDY    34  34 100 S9G15     29.94R WCI  26
CHARITON *     LGT SNOW  32  32 100 S7        29.98S VSB 1   WCI  26
DES MOINES     LGT SNOW  34  33  96 S7        29.98S FOG     WCI  28
GRINNELL*      LGT SNOW  32  32  99 S5        30.00S VSB 1   WCI  28
KNOXVILLE *    SNOW      32  32 100 SE6       29.97F VSB 1/2 WCI  26
MARSHALLTOWN   LGT SNOW  33  33 100 S12       29.96F FOG     WCI  24
NEWTON *       FOG       32  32 100 SE9       29.97F VSB 1/2 WCI  24
PELLA *        LGT SNOW  32  32  99 S3        30.00F VSB 3/4
PERRY *        CLOUDY    33  33 100 S6        29.97R FOG     WCI  28
$$

IAZ004>006-015-016-023>025-035-036-041600-
   NORTH CENTRAL IOWA

CITY           SKY/WX    TMP DP  RH WIND       PRES   REMARKS
ALGONA *       FOG       34  34 100 SW10      29.91S VSB<1/4 WCI  26
CLARION *      CLOUDY    34  34 100 S13       29.94R FOG     WCI  25
ESTHERVILLE    CLOUDY    33  32  96 SW13      29.89S WCI  24
FORT DODGE *   CLOUDY    34  30  86 SW9       29.95R VSB 1/4 WCI  26
MASON CITY     CLOUDY    33  32  96 S14       29.93F WCI  23
FOREST CITY *  FOG       32  32 100 SW9       29.92R VSB 1/4 WCI  24
WEBSTER CITY * CLOUDY    34  34 100 S10       29.93R WCI  26
IOWA FALLS *   FLURRIES  34  33  96 S12       29.95F WCI  25
$$

IAZ007>011-017>019-026>030-037>042-050>054-066-041600-
   NORTHEAST IOWA

CITY           SKY/WX    TMP DP  RH WIND       PRES   REMARKS
CEDAR RAPIDS   SNOW      32  32 100 SE7       30.01F VSB 1/2 WCI  26
CHARLES CITY * FOG       34  34 100 S17       29.94F VSB 3/4 WCI  23
CLINTON *      LGT SNOW  31  30  96 SE14      30.07F VSB 3/4 WCI  21
DECORAH *      SNOW      32  32 100 S12G18    29.95F VSB 1/2 WCI  23
DUBUQUE        SNOW      30  28  92 SE13      30.03F VSB 1/2 WCI  20
MONTICELLO *   LGT SNOW  32  30  93 SE13      30.02F VSB 3/4 WCI  22
OELWEIN *      SNOW      32  32 100 S16       29.99S VSB 1/4 WCI  21
WATERLOO       LGT SNOW  33  31  92 S13       29.97F VSB 3/4 WCI  24
$$

IAZ064-065-067-068-078-041600-
   EAST CENTRAL IOWA

CITY           SKY/WX    TMP DP  RH WIND       PRES   REMARKS
DAVENPORT      HVY SNOW  31  29  92 SE12      30.06F VSB 1/4 WCI  22
IOWA CITY      SNOW      33  32  96 SE10      30.05F VSB 1/2 WCI  25
MUSCATINE *    SNOW      34  32  93 SE9       30.07S VSB 1/2 WCI  26
QUAD CITIES    HVY SNOW  32  30  92 SE6       30.07S VSB 1/4 WCI  26
$$

IAZ062-063-075>077-085>089-095>099-041600-
   SOUTHEAST IOWA

CITY           SKY/WX    TMP DP  RH WIND       PRES   REMARKS
BURLINGTON     SNOW      32  32 100 SE7       30.05S VSB 1/4 WCI  26
FAIRFIELD *    FOG       32  32 100 SE12      30.02F VSB 1/2 WCI  23
FORT MADISON * SNOW      34  32  93 SE3       30.05S VSB 1/2
KEOKUK *       SNOW      34  32  93 E5        30.04S VSB 1/2 WCI  30
OSKALOOSA *    LGT SNOW  32  32 100 SE8       30.00F VSB 1   WCI  25
CENTERVILLE *  LGT SNOW  32  32 100 CALM      30.00F
OTTUMWA        LGT SNOW  33  31  92 SE10      29.99F VSB 1   WCI  25
WASHINGTON *   SNOW      32  32 100 SE12      30.04F VSB 1/4 WCI  23
$$

ABBREVIATIONS USED IN REMARKS
   TC - TEMPERATURES IN CELSIUS
  WCI - WIND CHILL INDEX
   HX - HEAT INDEX
  VSB - VISIBILITY
$$




USA.gov is the U.S. government's official web portal to all federal, state and local government web resources and services.